Strona główna
METAR-TAF:

METAR-TAF

Lotnisko :

Aeroflex-Andover Airport

Andover, New Jersey, Stany Zjednoczone

Szerokość geograficzna: 41-00-32N, Długość geograficzna: 074-44-12W, wysokość: 177 m

Aktualna obserwacja pogody

Raport powstał 26 minut temu, godzina 17:54 UTC
Wiatr 5 kt od południowo-południowy zachód
Temperatura 1°C
Wilgotność 69%
Ciśnienie 1022 hPa

METAR: K12N 231754Z AUTO 20005KT 01/M04 A3017 RMK AO1 SLP229 T00061044 10006 21028 58031

czas: 13:20 (18:20 UTC)


TAF: brakujący

Obserwacja i prognoza pogody dla ponad 4000 lotnisk (raport METAR i TAF).

Dostępne stacje oznaczono żółtymi i czerwonymi punktami na mapie.

Najedź kursorem aby zobaczyć nazwę stacji.

Kliknij aby zobaczyć obserwacje i prognozy pogody.

Aby zmienić mapę: kliknij na zielony przycisk z czarnym krzyżykiem, aby powiększyć; na zielony przycisk z myślnikiem, aby pomniejszyć; na zielone strzałki, aby przejść do map sąsiednich.


METAR-TAF: